Big Bear City, CA

7:52 AM PDT on March 23, 2017 (GMT -0700)
Big Bear City

Weather History for KL35 - November, 2012

Change the Weather History Date:

Thursday, November 8, 2012

  Actual Average (KBUO) Record (KBUO)
Temperature  
Mean Temperature 44 °F -  
Max Temperature 51 °F 67 °F 77 °F (1996)
Min Temperature 37 °F 46 °F 48 °F (1998)
Degree Days  
Heating Degree Days 21    
Moisture  
Dew Point 32 °F    
Average Humidity 65    
Maximum Humidity 93    
Minimum Humidity 34    
Precipitation  
Precipitation 0.00 in - - ()
Sea Level Pressure  
Sea Level Pressure 30.00 in    
Wind  
Wind Speed 9 mph (WSW)    
Max Wind Speed 17 mph    
Max Gust Speed 37 mph    
Visibility 8 miles    
Events Rain    
Averages and records for this station are not official NWS values.
T = Trace of Precipitation, MM = Missing Value Source: NWS Daily Summary

Daily Weather History Graph

Daily Weather History Graph

Search for Another Location

Airport or City:

Trip Planner

Search our weather history database for the weather conditions in past years. The results will help you decide how hot, cold, wet, or windy it might be!

Date:

Astronomy

Nov. 08, 2012 Rise Set
Actual Time 6:14 AM PST 4:47 PM PST
Civil Twilight 5:48 AM PST 5:14 PM PST
Nautical Twilight 5:18 AM PST 5:43 PM PST
Astronomical Twilight 4:48 AM PST 6:13 PM PST
Moon 12:29 AM PST (11/8) 1:17 PM PST (11/8)
Length of Visible Light 11h 25m
Length of Day
10h 33m
Waning Crescent, 32% of the Moon is Illuminated
Nov 8
Waning Crescent
Nov 13
New
Nov 20
First Quarter
Nov 28
Full
Dec 6
Last Quarter

Hourly Weather History & Observations

Time (PST) Temp. Windchill Dew Point Humidity Pressure Visibility Wind Dir Wind Speed Gust Speed Precip Events Conditions
12:15 AM 42.8 °F 40.1 °F 21.2 °F 42% 30.12 in 10.0 mi WSW 4.6 mph - N/A   Clear
12:35 AM 42.8 °F 40.1 °F 21.2 °F 42% 30.11 in 10.0 mi West 4.6 mph - N/A   Clear
12:55 AM 42.8 °F 38.6 °F 19.4 °F 39% 30.11 in 10.0 mi WSW 6.9 mph - N/A   Clear
1:15 AM 42.8 °F 38.0 °F 19.4 °F 39% 30.10 in 10.0 mi WSW 8.1 mph - N/A   Clear
1:35 AM 42.8 °F 39.3 °F 19.4 °F 39% 30.09 in 10.0 mi WSW 5.8 mph - N/A   Clear
1:55 AM 42.8 °F 39.3 °F 19.4 °F 39% 30.09 in 10.0 mi WSW 5.8 mph - N/A   Clear
2:15 AM 41.0 °F 38.0 °F 19.4 °F 42% 30.08 in 10.0 mi SSW 4.6 mph - N/A   Clear
2:35 AM 37.4 °F 34.9 °F 19.4 °F 48% 30.08 in 10.0 mi WSW 3.5 mph - N/A   Clear
2:55 AM 44.6 °F 39.7 °F 19.4 °F 37% 30.08 in 10.0 mi West 9.2 mph - N/A   Clear
3:15 AM 44.6 °F 39.7 °F 19.4 °F 37% 30.08 in 10.0 mi West 9.2 mph - N/A   Clear
3:35 AM 44.6 °F 38.4 °F 19.4 °F 37% 30.08 in 10.0 mi West 12.7 mph 16.1 mph N/A   Clear
3:55 AM 44.6 °F 39.7 °F 19.4 °F 37% 30.08 in 10.0 mi West 9.2 mph - N/A   Clear
4:15 AM 44.6 °F 40.2 °F 17.6 °F 34% 30.08 in 10.0 mi WSW 8.1 mph - N/A   Clear
4:55 AM 44.6 °F 38.4 °F 17.6 °F 34% 30.08 in 10.0 mi WSW 12.7 mph 19.6 mph N/A   Clear
5:15 AM 44.6 °F 38.1 °F 17.6 °F 34% 30.09 in 10.0 mi WSW 13.8 mph 23.0 mph N/A   Clear
5:35 AM 42.8 °F 34.8 °F 19.4 °F 39% 30.10 in 10.0 mi West 17.3 mph 23.0 mph N/A   Clear
5:55 AM 42.8 °F 37.5 °F 21.2 °F 42% 30.10 in 10.0 mi WSW 9.2 mph 21.9 mph N/A   Clear
6:15 AM 42.8 °F 35.4 °F 19.4 °F 39% 30.11 in 7.0 mi WSW 15.0 mph 36.8 mph N/A   Clear
6:35 AM 42.8 °F 35.4 °F 21.2 °F 42% 30.11 in 10.0 mi WNW 15.0 mph 25.3 mph N/A   Scattered Clouds
6:55 AM 44.6 °F 41.4 °F 21.2 °F 39% 30.10 in 10.0 mi West 5.8 mph - N/A   Mostly Cloudy
7:15 AM 44.6 °F 40.2 °F 26.6 °F 49% 30.11 in 10.0 mi West 8.1 mph - N/A   Mostly Cloudy
7:35 AM 44.6 °F 40.7 °F 30.2 °F 57% 30.10 in 10.0 mi WNW 6.9 mph - N/A   Mostly Cloudy
7:55 AM 46.4 °F 43.5 °F 32.0 °F 57% 30.10 in 10.0 mi West 5.8 mph - N/A   Mostly Cloudy
8:15 AM 46.4 °F 43.5 °F 32.0 °F 57% 30.10 in 10.0 mi West 5.8 mph - N/A   Overcast
8:35 AM 46.4 °F 45.2 °F 32.0 °F 57% 30.09 in 10.0 mi West 3.5 mph - N/A   Overcast
8:55 AM 50.0 °F - 35.6 °F 58% 30.09 in 10.0 mi WSW 6.9 mph - N/A   Overcast
9:15 AM 50.0 °F - 35.6 °F 58% 30.09 in 10.0 mi SSW 3.5 mph - N/A   Overcast
9:35 AM 48.2 °F - 37.4 °F 66% 30.09 in 10.0 mi West 13.8 mph 17.3 mph N/A   Overcast
9:55 AM 48.2 °F - 37.4 °F 66% 30.09 in 10.0 mi West 10.4 mph - N/A   Overcast
10:15 AM 48.2 °F - 37.4 °F 66% 30.08 in 10.0 mi SW 3.5 mph - N/A Rain Light Rain
10:35 AM 51.8 °F - 37.4 °F 58% 30.06 in 10.0 mi SSW 10.4 mph - N/A   Overcast
10:55 AM 51.8 °F - 35.6 °F 54% 30.06 in 10.0 mi SSW 12.7 mph 19.6 mph N/A   Overcast
11:15 AM 51.8 °F - 37.4 °F 58% 30.06 in 10.0 mi SW 10.4 mph - N/A   Overcast
11:35 AM 51.8 °F - 37.4 °F 58% 30.03 in 10.0 mi South 8.1 mph - N/A   Mostly Cloudy
11:55 AM 51.8 °F - 37.4 °F 58% 30.02 in 10.0 mi WSW 10.4 mph 18.4 mph N/A   Mostly Cloudy
12:15 PM 51.8 °F - 37.4 °F 58% 30.00 in 10.0 mi SSW 11.5 mph 19.6 mph N/A   Mostly Cloudy
12:35 PM 50.0 °F - 37.4 °F 62% 30.00 in 10.0 mi SW 10.4 mph 21.9 mph N/A   Mostly Cloudy
12:55 PM 50.0 °F - 39.2 °F 66% 29.99 in 10.0 mi SW 10.4 mph 21.9 mph N/A   Overcast
1:15 PM 50.0 °F - 39.2 °F 66% 29.98 in 10.0 mi SW 11.5 mph 24.2 mph N/A   Overcast
1:35 PM 50.0 °F - 39.2 °F 66% 29.97 in 10.0 mi SW 12.7 mph 24.2 mph N/A   Overcast
1:55 PM 48.2 °F - 39.2 °F 71% 29.97 in 10.0 mi SW 12.7 mph 26.5 mph N/A   Overcast
2:15 PM 48.2 °F - 37.4 °F 66% 29.95 in 10.0 mi WSW 11.5 mph 28.8 mph N/A   Overcast
2:35 PM 46.4 °F 41.5 °F 39.2 °F 76% 29.95 in 10.0 mi SW 10.4 mph 26.5 mph N/A   Overcast
2:55 PM 46.4 °F 41.5 °F 37.4 °F 71% 29.94 in 10.0 mi SW 10.4 mph 17.3 mph N/A   Overcast
3:15 PM 44.6 °F 37.2 °F 37.4 °F 76% 29.94 in 10.0 mi WSW 17.3 mph 25.3 mph N/A   Overcast
3:35 PM 44.6 °F 38.8 °F 39.2 °F 81% 29.94 in 10.0 mi WSW 11.5 mph 18.4 mph N/A   Overcast
3:55 PM 44.6 °F 41.4 °F 39.2 °F 81% 29.92 in 10.0 mi SSW 5.8 mph 24.2 mph N/A   Overcast
4:15 PM 44.6 °F 39.7 °F 39.2 °F 81% 29.92 in 10.0 mi SW 9.2 mph 19.6 mph N/A   Overcast
4:35 PM 42.8 °F 35.8 °F 39.2 °F 87% 29.92 in 7.0 mi WSW 13.8 mph 26.5 mph N/A   Overcast
4:55 PM 42.8 °F 38.0 °F 39.2 °F 87% 29.91 in 7.0 mi WSW 8.1 mph - N/A   Overcast
5:15 PM 42.8 °F 37.0 °F 39.2 °F 87% 29.92 in 10.0 mi WSW 10.4 mph 27.6 mph N/A   Overcast
5:35 PM 42.8 °F 40.1 °F 39.2 °F 87% 29.90 in 2.0 mi WSW 4.6 mph 21.9 mph N/A   Light Drizzle
5:55 PM 42.8 °F 39.3 °F 39.2 °F 87% 29.89 in 2.5 mi West 5.8 mph 16.1 mph N/A   Light Drizzle
6:15 PM 41.0 °F 33.1 °F 39.2 °F 93% 29.91 in 1.5 mi WSW 15.0 mph 25.3 mph N/A Rain Rain
6:35 PM 41.0 °F 36.4 °F 37.4 °F 87% 29.90 in 7.0 mi WSW 6.9 mph 23.0 mph N/A   Light Drizzle
6:55 PM 42.8 °F 37.0 °F 37.4 °F 81% 29.91 in 5.0 mi SW 10.4 mph 20.7 mph N/A Rain Rain
7:15 PM 41.0 °F 35.2 °F 37.4 °F 87% 29.91 in 5.0 mi WSW 9.2 mph 18.4 mph N/A   Drizzle
7:35 PM 41.0 °F 33.1 °F 37.4 °F 87% 29.89 in 3.0 mi WSW 15.0 mph 21.9 mph N/A   Light Drizzle
7:55 PM 41.0 °F 34.7 °F 37.4 °F 87% 29.89 in 2.5 mi SW 10.4 mph 25.3 mph N/A   Drizzle
8:15 PM 41.0 °F 35.8 °F 37.4 °F 87% 29.89 in 2.5 mi WSW 8.1 mph 23.0 mph N/A   Drizzle
8:35 PM 41.0 °F 34.7 °F 37.4 °F 87% 29.90 in 2.5 mi West 10.4 mph 20.7 mph N/A   Light Drizzle
8:55 PM 41.0 °F 35.2 °F 37.4 °F 87% 29.90 in 2.0 mi West 9.2 mph 21.9 mph N/A   Light Drizzle
9:15 PM 41.0 °F 34.3 °F 37.4 °F 87% 29.90 in 2.5 mi WSW 11.5 mph 20.7 mph N/A   Light Drizzle
9:35 PM 39.2 °F 31.2 °F 37.4 °F 93% 29.90 in 2.0 mi WSW 13.8 mph 18.4 mph N/A   Light Drizzle
9:55 PM 39.2 °F 32.5 °F 35.6 °F 87% 29.91 in 3.0 mi WSW 10.4 mph 23.0 mph N/A   Overcast
10:15 PM 39.2 °F 33.0 °F 35.6 °F 87% 29.90 in 2.0 mi WSW 9.2 mph 24.2 mph N/A Rain Rain
10:35 PM 39.2 °F 33.0 °F 35.6 °F 87% 29.89 in 2.5 mi WSW 9.2 mph 21.9 mph N/A   Light Drizzle
10:55 PM 39.2 °F 32.0 °F 35.6 °F 87% 29.88 in 2.5 mi WSW 11.5 mph 16.1 mph N/A   Light Drizzle
11:15 PM 39.2 °F 32.0 °F 35.6 °F 87% 29.87 in 4.0 mi West 11.5 mph 17.3 mph N/A   Overcast
11:35 PM 39.2 °F 31.6 °F 35.6 °F 87% 29.87 in 4.0 mi West 12.7 mph 21.9 mph N/A   Overcast
11:55 PM 39.2 °F 32.5 °F 35.6 °F 87% 29.87 in 7.0 mi WSW 10.4 mph 19.6 mph N/A   Overcast